Location: Grange Rosano
(44.4500°N, 6.9667°E)
Time: 08:34:12
(UTC+00:00)

SeaSat 1 - Pass Details

Date: 26 May 2022
Orbit: 743 x 747 km, 108.0° (Epoch: 01 July)

Event Time Altitude Azimuth Distance (km) Brightness Sun altitude
Rises 03:02:43 0° 33° (NNE) 3,199 7.5 -8.3°
Reaches altitude 10° 03:05:07 10° 41° (NE) 2,271 6.6 -8.0°
Maximum altitude 03:09:47 41° 111° (ESE) 1,080 3.6 -7.4°
Drops below altitude 10° 03:14:24 10° 182° (S) 2,256 4.6 -6.7°
Sets 03:16:46 0° 189° (S) 3,175 5.3 -6.4°
